Flag for U.S.A. Weather past 2 weeks in Midland, Texas, U.S.A.

Now
80 °F

Clear.


Feels Like: 81 °F
Forecast: 77 / 98 °F
Wind: 5 mph from Southwest

Location: Midland - Midland Airpark

Current Time: Jul 29, 2015 at 7:21:25 AM

Latest Report: Jul 29, 2015 at 6:55 AM


Visibility: 10 mi

Pressure: 30.10 "Hg (27.33 "Hg at 847m altitude)

Humidity: 53%

Dew point: 61 °F

Location of MidlandLocation

Historic Weather in Midland — Graph

°F

Midland temperature yesterday

Maximum temperature yesterday: 102 °F (at 4:55 PM)
Minimum temperature yesterday: 78 °F (at 7:15 AM)
Average temperature yesterday: 90 °F

Past Weeks' High & Low Weather Summary

 TemperatureHumidityPressure
High103 °F (Jul 27, 5:15 PM)87% (Jul 22, 5:55 AM)30.10 "Hg (Jul 22, 5:55 AM)
Low71 °F (Jul 14, 6:35 AM)14% (Jul 20, 6:55 PM)29.85 "Hg (Jul 14, 6:15 PM)
Average88 °F42%29.98 "Hg
* Reported Jul 14 6:15 AM — Jul 29 6:15 AM, Midland, Weather by CustomWeather, © 2015

Note: Actual official high and low records may vary slightly from our data, if they occured in-between our weather recording intervals... More about our weather records

Advertising

Midland weather history for previous 24 hours

 ConditionsComfort  
Time TempWeatherWind HumidityBarometerVisibility
6:15 AM
Wed, Jul 29
80 °FClear.No wind51%30.09 "Hg10 mi
5:55 AM81 °FClear.3 mph50%30.08 "Hg10 mi
5:35 AM81 °FClear.6 mph49%30.07 "Hg10 mi
5:15 AM82 °FClear.3 mph47%30.07 "Hg10 mi
4:55 AM82 °FPassing clouds.No wind47%30.07 "Hg10 mi
4:35 AM83 °FPassing clouds.No wind45%30.06 "Hg10 mi
4:15 AM83 °FPassing clouds.5 mph45%30.06 "Hg10 mi
3:55 AM83 °FPassing clouds.3 mph46%30.05 "Hg10 mi
3:35 AM83 °FPassing clouds.3 mph47%30.05 "Hg10 mi
3:15 AM83 °FClear.8 mph45%30.05 "Hg10 mi
2:55 AM83 °FClear.9 mph46%30.04 "Hg10 mi
2:35 AM84 °FClear.10 mph45%30.04 "Hg10 mi
2:15 AM84 °FClear.12 mph42%30.04 "Hg10 mi
1:55 AM84 °FClear.9 mph39%30.04 "Hg10 mi
1:35 AM85 °FClear.9 mph38%30.04 "Hg10 mi
1:15 AM85 °FClear.8 mph36%30.04 "Hg10 mi
12:55 AM86 °FClear.8 mph35%30.03 "Hg10 mi
12:15 AM88 °FClear.12 mph32%30.03 "Hg10 mi
11:55 PM
Tue, Jul 28
88 °FClear.10 mph31%30.02 "Hg10 mi
11:35 PM89 °FClear.10 mph30%30.02 "Hg10 mi
11:15 PM90 °FClear.12 mph28%30.02 "Hg10 mi
10:55 PM91 °FClear.9 mph27%30.01 "Hg10 mi
9:55 PM93 °FClear.10 mph26%29.98 "Hg10 mi
9:15 PM94 °FSunny.10 mph24%29.95 "Hg10 mi
8:55 PM95 °FSunny.13 mph23%29.94 "Hg10 mi
8:35 PM96 °FSunny.13 mph23%29.94 "Hg10 mi
7:55 PM98 °FSunny.13 mph23%29.93 "Hg10 mi
7:35 PM99 °FSunny.15 mph22%29.91 "Hg10 mi
7:15 PM100 °FSunny.13 mph20%29.91 "Hg10 mi
6:55 PM100 °FSunny.14 mph20%29.91 "Hg10 mi
6:35 PM101 °FScattered clouds.14 mph21%29.91 "Hg10 mi
6:15 PM101 °FSunny.13 mph20%29.91 "Hg10 mi
5:55 PM101 °FScattered clouds.13 mph21%29.91 "Hg10 mi
5:15 PM101 °FScattered clouds.10 mph22%29.92 "Hg10 mi
4:55 PM102 °FScattered clouds.14 mph21%29.92 "Hg10 mi
4:15 PM100 °FSunny.3 mph21%29.94 "Hg10 mi
3:55 PM101 °FSunny.10 mph20%29.95 "Hg10 mi
3:35 PM101 °FSunny.6 mph20%29.96 "Hg10 mi
3:15 PM100 °FSunny.3 mph22%29.96 "Hg10 mi
2:55 PM99 °FSunny.9 mph25%29.97 "Hg10 mi
2:35 PM100 °FSunny.10 mph23%29.97 "Hg10 mi
2:15 PM99 °FSunny.10 mph27%29.97 "Hg10 mi
1:15 PM96 °FSunny.9 mph32%29.99 "Hg10 mi
12:55 PM95 °FSunny.9 mph34%29.99 "Hg10 mi
12:35 PM94 °FSunny.9 mph35%30.00 "Hg10 mi
12:15 PM94 °FSunny.12 mph37%29.99 "Hg10 mi
11:15 AM90 °FSunny.10 mph45%30.00 "Hg10 mi
10:55 AM89 °FSunny.12 mph47%30.00 "Hg10 mi
10:35 AM88 °FSunny.12 mph49%30.00 "Hg10 mi
10:15 AM86 °FSunny.15 mph52%30.01 "Hg10 mi
9:55 AM85 °FSunny.14 mph54%30.01 "Hg10 mi
9:35 AM84 °FSunny.10 mph56%30.01 "Hg10 mi
9:15 AM83 °FSunny.13 mph58%30.02 "Hg10 mi
8:55 AM82 °FSunny.15 mph59%30.01 "Hg10 mi
8:35 AM81 °FSunny.8 mph60%30.01 "Hg10 mi
8:15 AM80 °FSunny.8 mph59%30.00 "Hg10 mi
7:55 AM79 °FClear.7 mph57%30.00 "Hg10 mi
7:35 AM78 °FClear.7 mph56%30.00 "Hg10 mi
7:15 AM78 °FClear.7 mph56%30.00 "Hg10 mi
Weather by CustomWeather, © 2015

See weather overviewHow to use our weather pages